Time,TemperatureF,DewpointF,PressureIn,WindDirection,WindDirectionDegrees,WindSpeedMPH,WindSpeedGustMPH,Humidity,HourlyPrecipIn,Conditions,Clouds,dailyrainin,SoftwareType,DateUTC
2013-06-15 00:01:00,66.1,53.9,29.99,NW,315,0.7,0.9,65,0.00,,,0.00,WUHU216HW,2013-06-15 04:01:00,
2013-06-15 00:06:00,66.1,53.9,29.99,WNW,293,0.4,0.9,65,0.00,,,0.00,WUHU216HW,2013-06-15 04:06:00,
2013-06-15 00:11:00,66.1,53.9,29.99,NW,315,0.0,0.7,65,0.00,,,0.00,WUHU216HW,2013-06-15 04:11:00,
2013-06-15 00:16:00,66.1,53.9,29.99,NW,315,0.4,0.7,65,0.00,,,0.00,WUHU216HW,2013-06-15 04:16:00,
2013-06-15 00:21:00,65.9,53.7,29.99,North,0,0.2,0.7,65,0.00,,,0.00,WUHU216HW,2013-06-15 04:21:00,
2013-06-15 00:26:00,65.9,54.2,29.99,North,0,0.0,0.4,66,0.00,,,0.00,WUHU216HW,2013-06-15 04:26:00,
2013-06-15 00:31:00,65.5,53.8,30.00,North,0,0.0,0.4,66,0.00,,,0.00,WUHU216HW,2013-06-15 04:31:00,
2013-06-15 00:36:00,65.3,53.6,30.00,North,0,0.0,0.4,66,0.00,,,0.00,WUHU216HW,2013-06-15 04:36:00,
2013-06-15 00:41:00,65.2,53.1,30.00,East,90,0.0,0.0,65,0.00,,,0.00,WUHU216HW,2013-06-15 04:41:00,
2013-06-15 00:46:00,65.2,53.1,30.00,SSE,158,0.0,0.7,65,0.00,,,0.00,WUHU216HW,2013-06-15 04:46:00,
2013-06-15 00:51:00,65.0,52.9,30.00,South,180,0.9,1.1,65,0.00,,,0.00,WUHU216HW,2013-06-15 04:51:00,
2013-06-15 00:56:00,64.8,53.2,30.00,West,270,0.0,2.0,66,0.00,,,0.00,WUHU216HW,2013-06-15 04:56:00,
2013-06-15 01:01:00,64.6,53.4,30.00,SW,225,1.1,2.0,67,0.00,,,0.00,WUHU216HW,2013-06-15 05:01:00,
2013-06-15 01:06:00,64.4,53.3,30.00,SW,225,0.4,1.6,67,0.00,,,0.00,WUHU216HW,2013-06-15 05:06:00,
2013-06-15 01:11:00,64.1,52.9,30.00,SW,225,0.2,1.6,67,0.00,,,0.00,WUHU216HW,2013-06-15 05:11:00,
2013-06-15 01:16:00,63.7,53.0,30.00,SW,225,0.0,1.3,68,0.00,,,0.00,WUHU216HW,2013-06-15 05:16:00,
2013-06-15 01:21:00,63.5,53.6,30.00,WSW,248,0.0,0.4,70,0.00,,,0.00,WUHU216HW,2013-06-15 05:21:00,
2013-06-15 01:26:00,63.4,53.0,30.00,WSW,248,0.0,0.0,69,0.00,,,0.00,WUHU216HW,2013-06-15 05:26:00,
2013-06-15 01:31:00,63.0,53.1,30.00,SSW,203,0.4,0.4,70,0.00,,,0.00,WUHU216HW,2013-06-15 05:31:00,
2013-06-15 01:36:00,63.0,53.1,30.00,SSW,203,0.4,0.4,70,0.00,,,0.00,WUHU216HW,2013-06-15 05:36:00,
2013-06-15 01:41:00,62.8,52.9,30.00,SSW,203,0.0,0.4,70,0.00,,,0.00,WUHU216HW,2013-06-15 05:41:00,
2013-06-15 01:47:00,62.6,52.7,30.00,SSW,203,0.0,0.0,70,0.00,,,0.00,WUHU216HW,2013-06-15 05:47:00,
2013-06-15 01:52:00,62.6,52.7,30.00,SW,225,1.1,1.1,70,0.00,,,0.00,WUHU216HW,2013-06-15 05:52:00,
2013-06-15 01:58:00,62.5,52.6,30.00,WSW,248,0.4,1.3,70,0.00,,,0.00,WUHU216HW,2013-06-15 05:58:00,
2013-06-15 02:02:00,62.3,52.7,30.00,SW,225,0.7,1.3,71,0.00,,,0.00,WUHU216HW,2013-06-15 06:02:00,
2013-06-15 02:07:00,62.3,52.7,30.00,SW,225,0.0,0.7,71,0.00,,,0.00,WUHU216HW,2013-06-15 06:07:00,
2013-06-15 02:12:00,62.3,52.7,30.00,SW,225,0.4,0.4,71,0.00,,,0.00,WUHU216HW,2013-06-15 06:12:00,
2013-06-15 02:18:00,62.1,52.7,30.00,SW,225,0.4,0.7,71,0.00,,,0.00,WUHU216HW,2013-06-15 06:18:00,
2013-06-15 02:23:00,62.1,52.7,30.00,SW,225,0.0,0.7,71,0.00,,,0.00,WUHU216HW,2013-06-15 06:23:00,
2013-06-15 02:28:00,62.1,52.7,30.00,SW,225,0.0,0.4,71,0.00,,,0.00,WUHU216HW,2013-06-15 06:28:00,
2013-06-15 02:32:00,61.9,52.1,30.00,SSW,203,0.7,1.1,70,0.00,,,0.00,WUHU216HW,2013-06-15 06:32:00,
2013-06-15 02:37:00,61.9,52.5,30.00,SSW,203,0.7,1.1,71,0.00,,,0.00,WUHU216HW,2013-06-15 06:37:00,
2013-06-15 02:42:00,62.1,53.0,30.00,SSW,203,0.0,1.1,72,0.00,,,0.00,WUHU216HW,2013-06-15 06:42:00,
2013-06-15 02:47:00,61.9,52.8,30.00,SSW,203,0.0,0.7,72,0.00,,,0.00,WUHU216HW,2013-06-15 06:47:00,
2013-06-15 02:52:00,61.7,52.7,29.99,SSW,203,0.0,0.0,72,0.00,,,0.00,WUHU216HW,2013-06-15 06:52:00,
2013-06-15 02:57:00,61.6,52.8,29.99,SSW,203,0.0,0.0,73,0.00,,,0.00,WUHU216HW,2013-06-15 06:57:00,
2013-06-15 03:02:00,61.2,52.6,29.99,SSW,203,1.1,1.1,73,0.00,,,0.00,WUHU216HW,2013-06-15 07:02:00,
2013-06-15 03:07:00,61.0,52.4,29.99,SW,225,0.0,1.6,73,0.00,,,0.00,WUHU216HW,2013-06-15 07:07:00,
2013-06-15 03:12:00,61.0,52.8,29.98,SW,225,0.0,1.6,74,0.00,,,0.00,WUHU216HW,2013-06-15 07:12:00,
2013-06-15 03:17:00,60.7,52.4,29.99,WNW,293,0.0,0.9,74,0.00,,,0.00,WUHU216HW,2013-06-15 07:17:00,
2013-06-15 03:22:00,60.5,51.8,29.99,SSW,203,1.3,1.3,73,0.00,,,0.00,WUHU216HW,2013-06-15 07:22:00,
2013-06-15 03:27:00,60.5,51.8,29.99,WSW,248,0.4,1.3,73,0.00,,,0.00,WUHU216HW,2013-06-15 07:27:00,
2013-06-15 03:32:00,60.5,51.8,29.99,SSW,203,0.4,1.1,73,0.00,,,0.00,WUHU216HW,2013-06-15 07:32:00,
2013-06-15 03:37:00,60.5,51.8,29.98,SSW,203,0.0,1.1,73,0.00,,,0.00,WUHU216HW,2013-06-15 07:37:00,
2013-06-15 03:42:00,60.5,51.8,29.99,WSW,248,0.4,1.1,73,0.00,,,0.00,WUHU216HW,2013-06-15 07:42:00,
2013-06-15 03:47:00,60.5,51.8,29.98,SSW,203,0.2,0.4,73,0.00,,,0.00,WUHU216HW,2013-06-15 07:47:00,
2013-06-15 03:52:00,60.5,51.8,29.98,WSW,248,0.0,1.1,73,0.00,,,0.00,WUHU216HW,2013-06-15 07:52:00,
2013-06-15 03:58:00,60.5,52.2,29.99,WSW,248,0.0,1.1,74,0.00,,,0.00,WUHU216HW,2013-06-15 07:58:00,
2013-06-15 04:03:00,60.3,52.0,29.99,WSW,248,0.0,0.7,74,0.00,,,0.00,WUHU216HW,2013-06-15 08:03:00,
2013-06-15 04:08:00,60.1,51.8,29.99,WSW,248,0.0,0.0,74,0.00,,,0.00,WUHU216HW,2013-06-15 08:08:00,
2013-06-15 04:13:00,60.1,51.8,29.98,SW,225,0.0,0.0,74,0.00,,,0.00,WUHU216HW,2013-06-15 08:13:00,
2013-06-15 04:18:00,60.1,51.8,29.99,South,180,0.0,0.7,74,0.00,,,0.00,WUHU216HW,2013-06-15 08:18:00,
2013-06-15 04:23:00,60.1,52.2,29.99,WSW,248,0.4,0.7,75,0.00,,,0.00,WUHU216HW,2013-06-15 08:23:00,
2013-06-15 04:28:00,60.1,52.6,29.99,West,270,0.0,0.4,76,0.00,,,0.00,WUHU216HW,2013-06-15 08:28:00,
2013-06-15 04:33:00,59.9,52.4,29.99,West,270,0.0,0.4,76,0.00,,,0.00,WUHU216HW,2013-06-15 08:33:00,
2013-06-15 04:38:00,59.8,52.2,29.99,SSW,203,0.4,0.7,76,0.00,,,0.00,WUHU216HW,2013-06-15 08:38:00,
2013-06-15 04:43:00,59.8,51.8,29.99,SW,225,0.0,0.9,75,0.00,,,0.00,WUHU216HW,2013-06-15 08:43:00,
2013-06-15 04:48:00,59.9,52.0,29.99,SW,225,0.0,0.4,75,0.00,,,0.00,WUHU216HW,2013-06-15 08:48:00,
2013-06-15 04:53:00,59.9,52.0,29.99,SW,225,0.9,1.6,75,0.00,,,0.00,WUHU216HW,2013-06-15 08:53:00,
2013-06-15 04:58:00,59.9,52.0,29.99,WSW,248,0.0,1.6,75,0.00,,,0.00,WUHU216HW,2013-06-15 08:58:00,
2013-06-15 05:03:00,59.9,52.4,29.99,SSW,203,0.0,1.1,76,0.00,,,0.00,WUHU216HW,2013-06-15 09:03:00,
2013-06-15 05:08:00,59.9,52.4,29.99,SW,225,2.7,2.7,76,0.00,,,0.00,WUHU216HW,2013-06-15 09:08:00,
2013-06-15 05:13:00,59.8,52.2,29.99,WSW,248,0.4,2.7,76,0.00,,,0.00,WUHU216HW,2013-06-15 09:13:00,
2013-06-15 05:18:00,59.8,52.2,30.00,SSW,203,0.2,2.5,76,0.00,,,0.00,WUHU216HW,2013-06-15 09:18:00,
2013-06-15 05:23:00,59.6,52.0,30.01,SW,225,2.7,2.7,76,0.00,,,0.00,WUHU216HW,2013-06-15 09:23:00,
2013-06-15 05:28:00,59.6,52.4,30.01,WSW,248,1.6,2.7,77,0.00,,,0.00,WUHU216HW,2013-06-15 09:28:00,
2013-06-15 05:33:00,59.6,52.7,30.02,WSW,248,0.4,2.7,78,0.00,,,0.00,WUHU216HW,2013-06-15 09:33:00,
2013-06-15 05:38:00,59.4,52.2,30.02,WSW,248,2.5,2.5,77,0.00,,,0.00,WUHU216HW,2013-06-15 09:38:00,
2013-06-15 05:43:00,59.4,52.2,30.02,SW,225,0.0,2.5,77,0.00,,,0.00,WUHU216HW,2013-06-15 09:43:00,
2013-06-15 05:48:00,59.4,52.6,30.02,SSW,203,0.2,1.8,78,0.00,,,0.00,WUHU216HW,2013-06-15 09:48:00,
2013-06-15 05:53:00,59.4,52.6,30.02,West,270,0.0,1.8,78,0.00,,,0.00,WUHU216HW,2013-06-15 09:53:00,
2013-06-15 05:58:00,59.4,52.2,30.03,SW,225,0.7,1.3,77,0.00,,,0.00,WUHU216HW,2013-06-15 09:58:00,
2013-06-15 06:03:00,59.2,52.0,30.03,SW,225,0.4,0.7,77,0.00,,,0.00,WUHU216HW,2013-06-15 10:03:00,
2013-06-15 06:08:00,59.2,52.0,30.03,SSW,203,0.2,1.3,77,0.00,,,0.00,WUHU216HW,2013-06-15 10:08:00,
2013-06-15 06:13:00,59.0,51.8,30.03,WSW,248,2.2,2.2,77,0.00,,,0.00,WUHU216HW,2013-06-15 10:13:00,
2013-06-15 06:18:00,59.2,52.4,30.03,WSW,248,0.4,2.2,78,0.00,,,0.00,WUHU216HW,2013-06-15 10:18:00,
2013-06-15 06:23:00,59.0,52.2,30.03,SW,225,0.7,2.5,78,0.00,,,0.00,WUHU216HW,2013-06-15 10:23:00,
2013-06-15 06:28:00,59.0,52.6,30.03,WSW,248,0.2,2.5,79,0.00,,,0.00,WUHU216HW,2013-06-15 10:28:00,
2013-06-15 06:33:00,59.4,52.6,30.04,SSW,203,1.3,2.5,78,0.00,,,0.00,WUHU216HW,2013-06-15 10:33:00,
2013-06-15 06:38:00,59.4,52.9,30.04,West,270,0.4,2.5,79,0.00,,,0.00,WUHU216HW,2013-06-15 10:38:00,
2013-06-15 06:43:00,59.6,53.1,30.04,WSW,248,1.1,2.2,79,0.00,,,0.00,WUHU216HW,2013-06-15 10:43:00,
2013-06-15 06:48:00,59.6,52.7,30.03,WSW,248,0.4,2.5,78,0.00,,,0.00,WUHU216HW,2013-06-15 10:48:00,
2013-06-15 06:53:00,59.8,53.3,30.04,SSW,203,0.7,2.5,79,0.00,,,0.00,WUHU216HW,2013-06-15 10:53:00,
2013-06-15 06:58:00,59.8,52.9,30.04,WSW,248,2.2,2.2,78,0.00,,,0.00,WUHU216HW,2013-06-15 10:58:00,
2013-06-15 07:03:00,59.8,53.3,30.04,WSW,248,1.1,2.2,79,0.00,,,0.00,WUHU216HW,2013-06-15 11:03:00,
2013-06-15 07:08:00,59.8,53.3,30.04,WNW,293,1.8,1.8,79,0.00,,,0.00,WUHU216HW,2013-06-15 11:08:00,
2013-06-15 07:13:00,59.8,53.3,30.04,West,270,2.5,2.5,79,0.00,,,0.00,WUHU216HW,2013-06-15 11:13:00,
2013-06-15 07:18:00,59.9,53.5,30.05,SSW,203,2.0,2.5,79,0.00,,,0.00,WUHU216HW,2013-06-15 11:18:00,
2013-06-15 07:23:00,60.1,53.6,30.05,WNW,293,0.4,3.4,79,0.00,,,0.00,WUHU216HW,2013-06-15 11:23:00,
2013-06-15 07:28:00,60.5,54.0,30.05,West,270,0.4,3.4,79,0.00,,,0.00,WUHU216HW,2013-06-15 11:28:00,
2013-06-15 07:33:00,60.7,54.2,30.05,West,270,0.9,1.6,79,0.00,,,0.00,WUHU216HW,2013-06-15 11:33:00,
2013-06-15 07:38:00,61.0,54.6,30.05,NW,315,2.5,2.5,79,0.00,,,0.00,WUHU216HW,2013-06-15 11:38:00,
2013-06-15 07:43:00,61.2,54.4,30.05,SW,225,0.4,2.5,78,0.00,,,0.00,WUHU216HW,2013-06-15 11:43:00,
2013-06-15 07:48:00,61.6,54.3,30.06,WSW,248,0.4,1.8,77,0.00,,,0.00,WUHU216HW,2013-06-15 11:48:00,
2013-06-15 07:53:00,61.7,54.5,30.05,SW,225,0.4,1.3,77,0.00,,,0.00,WUHU216HW,2013-06-15 11:53:00,
2013-06-15 07:58:00,62.1,54.8,30.05,SW,225,3.1,4.7,77,0.00,,,0.00,WUHU216HW,2013-06-15 11:58:00,
2013-06-15 08:03:00,62.5,55.1,30.05,SSW,203,3.4,4.9,77,0.00,,,0.00,WUHU216HW,2013-06-15 12:03:00,
2013-06-15 08:08:00,62.8,55.4,30.06,South,180,0.0,4.9,77,0.00,,,0.00,WUHU216HW,2013-06-15 12:08:00,
2013-06-15 08:13:00,63.0,55.6,30.05,NW,315,0.7,2.9,77,0.00,,,0.00,WUHU216HW,2013-06-15 12:13:00,
2013-06-15 08:18:00,63.4,56.0,30.06,SSE,158,1.8,1.8,77,0.00,,,0.00,WUHU216HW,2013-06-15 12:18:00,
2013-06-15 08:23:00,63.7,56.3,30.06,NW,315,1.8,1.8,77,0.00,,,0.00,WUHU216HW,2013-06-15 12:23:00,
2013-06-15 08:28:00,64.1,56.3,30.06,West,270,0.9,2.9,76,0.00,,,0.00,WUHU216HW,2013-06-15 12:28:00,
2013-06-15 08:33:00,64.4,56.7,30.07,NNW,338,0.9,2.9,76,0.00,,,0.00,WUHU216HW,2013-06-15 12:33:00,
2013-06-15 08:38:00,64.8,56.4,30.07,WNW,293,0.0,1.3,74,0.00,,,0.00,WUHU216HW,2013-06-15 12:38:00,
2013-06-15 08:43:00,65.0,56.9,30.07,WNW,293,2.0,2.0,75,0.00,,,0.00,WUHU216HW,2013-06-15 12:43:00,
2013-06-15 08:48:00,65.7,57.2,30.07,SW,225,1.1,2.0,74,0.00,,,0.00,WUHU216HW,2013-06-15 12:48:00,
2013-06-15 08:53:00,66.4,57.5,30.06,NW,315,2.0,2.0,73,0.00,,,0.00,WUHU216HW,2013-06-15 12:53:00,
2013-06-15 08:58:00,67.0,58.1,30.07,SW,225,5.1,6.7,73,0.00,,,0.00,WUHU216HW,2013-06-15 12:58:00,
2013-06-15 09:03:00,67.7,58.0,30.06,SW,225,6.9,6.9,71,0.00,,,0.00,WUHU216HW,2013-06-15 13:03:00,
2013-06-15 09:08:00,67.9,57.8,30.07,SW,225,1.3,6.9,70,0.00,,,0.00,WUHU216HW,2013-06-15 13:08:00,
2013-06-15 09:13:00,69.1,59.0,30.07,SSW,203,4.7,5.1,70,0.00,,,0.00,WUHU216HW,2013-06-15 13:13:00,
2013-06-15 09:18:00,69.1,59.0,30.07,SSW,203,4.7,5.1,70,0.00,,,0.00,WUHU216HW,2013-06-15 13:18:00,
2013-06-15 09:23:00,70.4,58.4,30.07,NNE,23,0.7,2.5,66,0.00,,,0.00,WUHU216HW,2013-06-15 13:23:00,
2013-06-15 09:28:00,70.9,58.5,30.07,NE,45,0.4,2.5,65,0.00,,,0.00,WUHU216HW,2013-06-15 13:28:00,
2013-06-15 09:33:00,71.3,59.3,30.07,South,180,0.2,3.6,66,0.00,,,0.00,WUHU216HW,2013-06-15 13:33:00,
2013-06-15 09:38:00,71.8,59.0,30.07,WSW,248,1.8,3.6,64,0.00,,,0.00,WUHU216HW,2013-06-15 13:38:00,
2013-06-15 09:43:00,72.4,59.5,30.07,WSW,248,1.3,2.5,64,0.00,,,0.00,WUHU216HW,2013-06-15 13:43:00,
2013-06-15 09:48:00,72.9,59.9,30.07,WNW,293,1.1,2.5,64,0.00,,,0.00,WUHU216HW,2013-06-15 13:48:00,
2013-06-15 09:53:00,73.3,60.3,30.07,NW,315,0.7,3.8,64,0.00,,,0.00,WUHU216HW,2013-06-15 13:53:00,
2013-06-15 09:58:00,73.8,60.9,30.07,ESE,113,1.1,3.8,64,0.00,,,0.00,WUHU216HW,2013-06-15 13:58:00,
2013-06-15 10:03:00,74.2,60.3,30.07,NW,315,0.4,2.7,62,0.00,,,0.00,WUHU216HW,2013-06-15 14:03:00,
2013-06-15 10:09:00,74.9,61.0,30.07,NW,315,1.1,2.5,62,0.00,,,0.00,WUHU216HW,2013-06-15 14:09:00,
2013-06-15 10:14:00,75.2,60.9,30.07,SW,225,1.8,1.8,61,0.00,,,0.00,WUHU216HW,2013-06-15 14:14:00,
2013-06-15 10:19:00,75.2,60.5,30.07,NNW,338,0.4,1.8,60,0.00,,,0.00,WUHU216HW,2013-06-15 14:19:00,
2013-06-15 10:24:00,75.6,61.2,30.06,NNW,338,0.4,1.8,61,0.00,,,0.00,WUHU216HW,2013-06-15 14:24:00,
2013-06-15 10:29:00,76.3,60.9,30.06,NNE,23,1.8,2.9,59,0.00,,,0.00,WUHU216HW,2013-06-15 14:29:00,
2013-06-15 10:34:00,76.0,60.1,30.06,West,270,0.7,2.9,58,0.00,,,0.00,WUHU216HW,2013-06-15 14:34:00,
2013-06-15 10:39:00,76.7,62.2,30.06,SW,225,3.1,4.7,61,0.00,,,0.00,WUHU216HW,2013-06-15 14:39:00,
2013-06-15 10:44:00,77.0,61.1,30.06,NNW,338,1.6,4.7,58,0.00,,,0.00,WUHU216HW,2013-06-15 14:44:00,
2013-06-15 10:49:00,76.9,61.5,30.05,SSW,203,1.6,4.0,59,0.00,,,0.00,WUHU216HW,2013-06-15 14:49:00,
2013-06-15 10:54:00,76.7,60.8,30.06,West,270,1.8,2.2,58,0.00,,,0.00,WUHU216HW,2013-06-15 14:54:00,
2013-06-15 10:59:00,77.0,61.6,30.05,SW,225,1.3,2.5,59,0.00,,,0.00,WUHU216HW,2013-06-15 14:59:00,
2013-06-15 11:04:00,77.6,61.7,30.05,NNE,23,3.4,3.6,58,0.00,,,0.00,WUHU216HW,2013-06-15 15:04:00,
2013-06-15 11:09:00,78.1,61.7,30.05,NE,45,2.7,3.6,57,0.00,,,0.00,WUHU216HW,2013-06-15 15:09:00,
2013-06-15 11:14:00,78.1,61.1,30.05,North,0,2.7,3.4,56,0.00,,,0.00,WUHU216HW,2013-06-15 15:14:00,
2013-06-15 11:19:00,78.7,61.7,30.05,South,180,1.6,2.7,56,0.00,,,0.00,WUHU216HW,2013-06-15 15:19:00,
2013-06-15 11:24:00,79.4,60.8,30.05,North,0,0.7,1.8,53,0.00,,,0.00,WUHU216HW,2013-06-15 15:24:00,
2013-06-15 11:29:00,80.3,61.6,30.05,NNW,338,1.1,2.0,53,0.00,,,0.00,WUHU216HW,2013-06-15 15:29:00,
2013-06-15 11:34:00,80.1,59.9,30.05,North,0,2.5,2.5,50,0.00,,,0.00,WUHU216HW,2013-06-15 15:34:00,
2013-06-15 11:39:00,79.6,58.2,30.05,NNE,23,1.6,2.5,48,0.00,,,0.00,WUHU216HW,2013-06-15 15:39:00,
2013-06-15 11:44:00,78.3,58.7,30.05,ENE,68,1.1,2.2,51,0.00,,,0.00,WUHU216HW,2013-06-15 15:44:00,
2013-06-15 11:49:00,78.1,59.0,30.05,NW,315,1.8,2.7,52,0.00,,,0.00,WUHU216HW,2013-06-15 15:49:00,
2013-06-15 11:54:00,78.8,60.2,30.05,NNW,338,0.4,2.7,53,0.00,,,0.00,WUHU216HW,2013-06-15 15:54:00,
2013-06-15 11:59:00,78.8,59.8,30.05,North,0,1.1,2.0,52,0.00,,,0.00,WUHU216HW,2013-06-15 15:59:00,
2013-06-15 12:04:00,78.3,58.7,30.05,North,0,1.8,2.0,51,0.00,,,0.00,WUHU216HW,2013-06-15 16:04:00,
2013-06-15 12:09:00,78.8,61.3,30.05,North,0,2.7,2.7,55,0.00,,,0.00,WUHU216HW,2013-06-15 16:09:00,
2013-06-15 12:14:00,79.4,61.3,30.05,NNE,23,2.9,3.4,54,0.00,,,0.00,WUHU216HW,2013-06-15 16:14:00,
2013-06-15 12:19:00,79.9,57.8,30.05,North,0,1.8,3.4,47,0.00,,,0.00,WUHU216HW,2013-06-15 16:19:00,
2013-06-15 12:24:00,80.5,61.8,30.05,NNE,23,2.7,2.7,53,0.00,,,0.00,WUHU216HW,2013-06-15 16:24:00,
2013-06-15 12:29:00,81.0,57.0,30.05,NNW,338,0.9,5.4,44,0.00,,,0.00,WUHU216HW,2013-06-15 16:29:00,
2013-06-15 12:34:00,80.6,57.9,30.05,NNW,338,1.1,5.4,46,0.00,,,0.00,WUHU216HW,2013-06-15 16:34:00,
2013-06-15 12:39:00,80.3,58.8,30.05,NNE,23,2.5,2.5,48,0.00,,,0.00,WUHU216HW,2013-06-15 16:39:00,
2013-06-15 12:44:00,80.8,60.5,30.04,NNE,23,3.4,3.4,50,0.00,,,0.00,WUHU216HW,2013-06-15 16:44:00,
2013-06-15 12:49:00,80.6,59.7,30.04,WNW,293,0.4,3.4,49,0.00,,,0.00,WUHU216HW,2013-06-15 16:49:00,
2013-06-15 12:54:00,81.2,60.8,30.04,NW,315,1.1,4.0,50,0.00,,,0.00,WUHU216HW,2013-06-15 16:54:00,
2013-06-15 12:59:00,81.2,61.8,30.04,North,0,3.1,4.0,52,0.00,,,0.00,WUHU216HW,2013-06-15 16:59:00,
2013-06-15 13:04:00,81.5,59.9,30.04,NNW,338,0.4,4.0,48,0.00,,,0.00,WUHU216HW,2013-06-15 17:04:00,
2013-06-15 13:09:00,81.5,60.5,30.03,NNW,338,1.6,3.1,49,0.00,,,0.00,WUHU216HW,2013-06-15 17:09:00,
2013-06-15 13:14:00,81.2,60.2,30.03,South,180,1.8,1.8,49,0.00,,,0.00,WUHU216HW,2013-06-15 17:14:00,
2013-06-15 13:19:00,80.3,60.5,30.03,WSW,248,0.9,1.8,51,0.00,,,0.00,WUHU216HW,2013-06-15 17:19:00,
2013-06-15 13:24:00,79.9,58.4,30.03,NNW,338,1.1,1.1,48,0.00,,,0.00,WUHU216HW,2013-06-15 17:24:00,
2013-06-15 13:29:00,80.1,60.8,30.03,NE,45,2.9,2.9,52,0.00,,,0.00,WUHU216HW,2013-06-15 17:29:00,
2013-06-15 13:34:00,79.6,59.3,30.02,NE,45,2.0,2.9,50,0.00,,,0.00,WUHU216HW,2013-06-15 17:34:00,
2013-06-15 13:39:00,79.0,58.2,30.02,NNE,23,1.8,2.0,49,0.00,,,0.00,WUHU216HW,2013-06-15 17:39:00,
2013-06-15 13:44:00,79.0,58.2,30.02,ESE,113,2.0,3.4,49,0.00,,,0.00,WUHU216HW,2013-06-15 17:44:00,
2013-06-15 13:49:00,79.9,60.7,30.02,NNE,23,4.7,4.7,52,0.00,,,0.00,WUHU216HW,2013-06-15 17:49:00,
2013-06-15 13:54:00,80.1,59.2,30.02,North,0,0.2,4.7,49,0.00,,,0.00,WUHU216HW,2013-06-15 17:54:00,
2013-06-15 13:59:00,80.1,58.6,30.02,WSW,248,1.8,2.5,48,0.00,,,0.00,WUHU216HW,2013-06-15 17:59:00,
2013-06-15 14:04:00,80.3,56.4,30.02,North,0,1.8,1.8,44,0.00,,,0.00,WUHU216HW,2013-06-15 18:04:00,
2013-06-15 14:09:00,79.9,56.0,30.02,NNW,338,2.5,2.5,44,0.00,,,0.00,WUHU216HW,2013-06-15 18:09:00,
2013-06-15 14:14:00,80.1,58.6,30.01,North,0,2.2,2.7,48,0.00,,,0.00,WUHU216HW,2013-06-15 18:14:00,
2013-06-15 14:19:00,80.5,58.3,30.01,NNE,23,1.8,4.7,47,0.00,,,0.00,WUHU216HW,2013-06-15 18:19:00,
2013-06-15 14:24:00,80.6,58.5,30.01,NNE,23,2.5,4.7,47,0.00,,,0.00,WUHU216HW,2013-06-15 18:24:00,
2013-06-15 14:29:00,80.5,57.1,30.01,South,180,1.8,3.8,45,0.00,,,0.00,WUHU216HW,2013-06-15 18:29:00,
2013-06-15 14:34:00,80.3,58.8,30.01,WNW,293,1.1,3.8,48,0.00,,,0.00,WUHU216HW,2013-06-15 18:34:00,
2013-06-15 14:39:00,79.9,59.0,30.01,North,0,1.8,2.9,49,0.00,,,0.00,WUHU216HW,2013-06-15 18:39:00,
2013-06-15 14:44:00,80.1,59.2,30.01,NE,45,3.1,3.4,49,0.00,,,0.00,WUHU216HW,2013-06-15 18:44:00,
2013-06-15 14:49:00,80.3,58.8,30.01,North,0,1.1,4.0,48,0.00,,,0.00,WUHU216HW,2013-06-15 18:49:00,
2013-06-15 14:55:00,79.7,57.1,30.01,WSW,248,0.2,3.4,46,0.00,,,0.00,WUHU216HW,2013-06-15 18:55:00,
2013-06-15 15:00:00,79.4,58.6,30.01,SSW,203,4.7,4.7,49,0.00,,,0.00,WUHU216HW,2013-06-15 19:00:00,
2013-06-15 15:05:00,79.9,58.4,30.01,SW,225,1.8,4.7,48,0.00,,,0.00,WUHU216HW,2013-06-15 19:05:00,
2013-06-15 15:10:00,79.9,58.4,30.01,North,0,0.7,2.7,48,0.00,,,0.00,WUHU216HW,2013-06-15 19:10:00,
2013-06-15 15:17:00,79.6,58.2,30.01,North,0,1.6,1.8,48,0.00,,,0.00,WUHU216HW,2013-06-15 19:17:00,
2013-06-15 15:22:00,79.4,58.6,30.01,WNW,293,0.7,1.6,49,0.00,,,0.00,WUHU216HW,2013-06-15 19:22:00,
2013-06-15 15:27:00,79.6,56.3,30.01,North,0,2.5,3.4,45,0.00,,,0.00,WUHU216HW,2013-06-15 19:27:00,
2013-06-15 15:32:00,79.4,56.1,30.01,North,0,1.8,3.4,45,0.00,,,0.00,WUHU216HW,2013-06-15 19:32:00,
2013-06-15 15:37:00,79.6,58.2,30.00,WNW,293,0.9,2.2,48,0.00,,,0.00,WUHU216HW,2013-06-15 19:37:00,
2013-06-15 15:42:00,79.9,56.6,30.00,North,0,2.7,2.7,45,0.00,,,0.00,WUHU216HW,2013-06-15 19:42:00,
2013-06-15 15:47:00,80.3,58.8,30.00,NE,45,2.2,2.7,48,0.00,,,0.00,WUHU216HW,2013-06-15 19:47:00,
2013-06-15 15:52:00,80.3,56.9,30.00,North,0,1.8,2.2,45,0.00,,,0.00,WUHU216HW,2013-06-15 19:52:00,
2013-06-15 15:57:00,80.1,57.3,30.00,NE,45,2.5,2.5,46,0.00,,,0.00,WUHU216HW,2013-06-15 19:57:00,
2013-06-15 16:02:00,80.1,58.6,30.00,ESE,113,1.1,4.7,48,0.00,,,0.00,WUHU216HW,2013-06-15 20:02:00,
2013-06-15 16:07:00,80.1,58.6,30.00,SW,225,1.1,4.7,48,0.00,,,0.00,WUHU216HW,2013-06-15 20:07:00,
2013-06-15 16:12:00,80.1,57.3,30.00,NNW,338,0.4,4.5,46,0.00,,,0.00,WUHU216HW,2013-06-15 20:12:00,
2013-06-15 16:17:00,80.3,57.5,30.00,West,270,0.7,4.5,46,0.00,,,0.00,WUHU216HW,2013-06-15 20:17:00,
2013-06-15 16:22:00,80.3,56.9,29.99,SSE,158,3.1,4.7,45,0.00,,,0.00,WUHU216HW,2013-06-15 20:22:00,
2013-06-15 16:27:00,80.3,57.5,29.99,NE,45,2.0,4.7,46,0.00,,,0.00,WUHU216HW,2013-06-15 20:27:00,
2013-06-15 16:32:00,80.3,58.1,29.99,North,0,0.4,3.6,47,0.00,,,0.00,WUHU216HW,2013-06-15 20:32:00,
2013-06-15 16:37:00,80.1,56.2,29.99,NW,315,1.8,3.6,44,0.00,,,0.00,WUHU216HW,2013-06-15 20:37:00,
2013-06-15 16:42:00,79.9,56.0,29.99,SW,225,1.8,1.8,44,0.00,,,0.00,WUHU216HW,2013-06-15 20:42:00,
2013-06-15 16:47:00,79.9,57.3,29.98,NNE,23,1.1,2.5,46,0.00,,,0.00,WUHU216HW,2013-06-15 20:47:00,
2013-06-15 16:52:00,79.7,55.8,29.99,WSW,248,3.8,3.8,44,0.00,,,0.00,WUHU216HW,2013-06-15 20:52:00,
2013-06-15 16:57:00,79.6,54.5,29.98,NW,315,3.1,3.8,42,0.00,,,0.00,WUHU216HW,2013-06-15 20:57:00,
2013-06-15 17:02:00,79.6,55.1,29.98,NW,315,0.4,3.6,43,0.00,,,0.00,WUHU216HW,2013-06-15 21:02:00,
2013-06-15 17:07:00,79.6,55.6,29.99,WNW,293,1.8,2.7,44,0.00,,,0.00,WUHU216HW,2013-06-15 21:07:00,
2013-06-15 17:12:00,79.6,53.8,29.99,NNW,338,1.6,2.7,41,0.00,,,0.00,WUHU216HW,2013-06-15 21:12:00,
2013-06-15 17:17:00,79.6,54.5,29.99,West,270,0.0,1.6,42,0.00,,,0.00,WUHU216HW,2013-06-15 21:17:00,
2013-06-15 17:22:00,79.6,55.1,29.99,NE,45,1.1,1.3,43,0.00,,,0.00,WUHU216HW,2013-06-15 21:22:00,
2013-06-15 17:27:00,79.6,55.6,29.99,NE,45,0.2,3.1,44,0.00,,,0.00,WUHU216HW,2013-06-15 21:27:00,
2013-06-15 17:32:00,79.2,52.9,29.99,NNE,23,1.6,3.1,40,0.00,,,0.00,WUHU216HW,2013-06-15 21:32:00,
2013-06-15 17:37:00,79.2,53.5,29.98,NNW,338,0.2,2.7,41,0.00,,,0.00,WUHU216HW,2013-06-15 21:37:00,
2013-06-15 17:43:00,79.4,55.5,29.98,North,0,0.4,2.7,44,0.00,,,0.00,WUHU216HW,2013-06-15 21:43:00,
2013-06-15 17:48:00,79.4,55.5,29.98,North,0,1.8,3.4,44,0.00,,,0.00,WUHU216HW,2013-06-15 21:48:00,
2013-06-15 17:54:00,79.0,52.8,29.98,North,0,0.2,3.4,40,0.00,,,0.00,WUHU216HW,2013-06-15 21:54:00,
2013-06-15 17:59:00,79.0,53.9,29.98,North,0,1.1,3.1,42,0.00,,,0.00,WUHU216HW,2013-06-15 21:59:00,
2013-06-15 18:04:00,78.8,52.6,29.98,NW,315,1.1,3.1,40,0.00,,,0.00,WUHU216HW,2013-06-15 22:04:00,
2013-06-15 18:09:00,78.8,53.2,29.98,NNE,23,1.6,1.8,41,0.00,,,0.00,WUHU216HW,2013-06-15 22:09:00,
2013-06-15 18:15:00,78.8,54.4,29.98,NNE,23,0.9,2.5,43,0.00,,,0.00,WUHU216HW,2013-06-15 22:15:00,
2013-06-15 18:20:00,78.8,55.0,29.98,NW,315,0.2,2.5,44,0.00,,,0.00,WUHU216HW,2013-06-15 22:20:00,
2013-06-15 18:27:00,78.7,55.4,29.98,North,0,2.7,3.4,45,0.00,,,0.00,WUHU216HW,2013-06-15 22:27:00,
2013-06-15 18:32:00,78.5,54.7,29.98,NNE,23,0.0,3.4,44,0.00,,,0.00,WUHU216HW,2013-06-15 22:32:00,
2013-06-15 18:38:00,78.1,55.0,29.98,North,0,1.3,2.5,45,0.00,,,0.00,WUHU216HW,2013-06-15 22:38:00,
2013-06-15 18:43:00,78.1,54.4,29.98,NNE,23,0.9,2.5,44,0.00,,,0.00,WUHU216HW,2013-06-15 22:43:00,
2013-06-15 18:48:00,78.1,54.4,29.99,NNE,23,0.2,2.5,44,0.00,,,0.00,WUHU216HW,2013-06-15 22:48:00,
2013-06-15 18:53:00,77.9,55.5,29.98,North,0,2.5,2.5,46,0.00,,,0.00,WUHU216HW,2013-06-15 22:53:00,
2013-06-15 18:58:00,77.9,54.8,29.98,North,0,0.2,2.5,45,0.00,,,0.00,WUHU216HW,2013-06-15 22:58:00,
2013-06-15 19:03:00,77.9,55.5,29.98,North,0,0.4,2.0,46,0.00,,,0.00,WUHU216HW,2013-06-15 23:03:00,
2013-06-15 19:09:00,77.9,54.2,29.99,North,0,1.3,2.0,44,0.00,,,0.00,WUHU216HW,2013-06-15 23:09:00,
2013-06-15 19:14:00,77.8,55.3,29.99,North,0,1.6,1.8,46,0.00,,,0.00,WUHU216HW,2013-06-15 23:14:00,
2013-06-15 19:19:00,77.6,55.1,29.99,NE,45,2.0,3.4,46,0.00,,,0.00,WUHU216HW,2013-06-15 23:19:00,
2013-06-15 19:24:00,77.4,54.4,29.99,NNW,338,1.1,3.4,45,0.00,,,0.00,WUHU216HW,2013-06-15 23:24:00,
2013-06-15 19:29:00,77.2,54.2,29.99,NNW,338,1.1,2.2,45,0.00,,,0.00,WUHU216HW,2013-06-15 23:29:00,
2013-06-15 19:34:00,77.2,54.2,29.99,NNW,338,1.8,1.8,45,0.00,,,0.00,WUHU216HW,2013-06-15 23:34:00,
2013-06-15 19:39:00,77.0,54.6,29.99,NNE,23,0.4,1.8,46,0.00,,,0.00,WUHU216HW,2013-06-15 23:39:00,
2013-06-15 19:44:00,76.7,54.9,29.99,NNE,23,1.8,1.8,47,0.00,,,0.00,WUHU216HW,2013-06-15 23:44:00,
2013-06-15 19:49:00,76.7,54.3,29.99,NNE,23,1.8,1.8,46,0.00,,,0.00,WUHU216HW,2013-06-15 23:49:00,
2013-06-15 19:54:00,76.3,54.5,29.99,NE,45,0.0,1.8,47,0.00,,,0.00,WUHU216HW,2013-06-15 23:54:00,
2013-06-15 19:59:00,76.1,53.8,30.00,NNE,23,0.2,0.9,46,0.00,,,0.00,WUHU216HW,2013-06-15 23:59:00,
2013-06-15 20:04:00,76.0,53.6,30.00,NNE,23,0.0,0.9,46,0.00,,,0.00,WUHU216HW,2013-06-16 00:04:00,
2013-06-15 20:09:00,75.6,53.3,30.00,NE,45,0.0,0.4,46,0.00,,,0.00,WUHU216HW,2013-06-16 00:09:00,
2013-06-15 20:14:00,75.4,53.2,30.00,NE,45,0.0,0.4,46,0.00,,,0.00,WUHU216HW,2013-06-16 00:14:00,
2013-06-15 20:19:00,75.2,54.8,30.00,NE,45,0.0,0.0,49,0.00,,,0.00,WUHU216HW,2013-06-16 00:19:00,
2013-06-15 20:24:00,74.9,55.1,30.00,East,90,0.0,0.2,50,0.00,,,0.00,WUHU216HW,2013-06-16 00:24:00,
2013-06-15 20:29:00,74.7,55.5,30.00,East,90,0.4,0.4,51,0.00,,,0.00,WUHU216HW,2013-06-16 00:29:00,
2013-06-15 20:34:00,74.5,55.7,30.00,East,90,0.0,0.4,52,0.00,,,0.00,WUHU216HW,2013-06-16 00:34:00,
2013-06-15 20:39:00,73.8,55.5,30.00,East,90,0.0,0.2,53,0.00,,,0.00,WUHU216HW,2013-06-16 00:39:00,
2013-06-15 20:44:00,73.3,55.0,30.00,East,90,0.0,0.0,53,0.00,,,0.00,WUHU216HW,2013-06-16 00:44:00,
2013-06-15 20:49:00,72.4,54.2,30.00,East,90,0.0,0.0,53,0.00,,,0.00,WUHU216HW,2013-06-16 00:49:00,
2013-06-15 20:54:00,71.8,53.7,30.00,East,90,0.4,0.4,53,0.00,,,0.00,WUHU216HW,2013-06-16 00:54:00,
2013-06-15 20:59:00,71.6,54.0,30.00,East,90,0.4,0.4,54,0.00,,,0.00,WUHU216HW,2013-06-16 00:59:00,
2013-06-15 21:04:00,71.1,53.6,30.00,East,90,0.0,0.4,54,0.00,,,0.00,WUHU216HW,2013-06-16 01:04:00,
2013-06-15 21:09:00,70.6,53.1,30.00,East,90,0.2,0.4,54,0.00,,,0.00,WUHU216HW,2013-06-16 01:09:00,
2013-06-15 21:14:00,70.2,53.3,30.00,East,90,0.0,0.4,55,0.00,,,0.00,WUHU216HW,2013-06-16 01:14:00,
2013-06-15 21:19:00,69.8,52.9,30.00,East,90,0.0,0.0,55,0.00,,,0.00,WUHU216HW,2013-06-16 01:19:00,
2013-06-15 21:24:00,69.7,52.7,30.00,East,90,0.0,0.0,55,0.00,,,0.00,WUHU216HW,2013-06-16 01:24:00,
2013-06-15 21:29:00,69.5,53.1,30.00,East,90,0.0,0.0,56,0.00,,,0.00,WUHU216HW,2013-06-16 01:29:00,
2013-06-15 21:34:00,69.3,52.9,30.00,East,90,0.0,0.0,56,0.00,,,0.00,WUHU216HW,2013-06-16 01:34:00,
2013-06-15 21:39:00,69.1,52.8,30.00,East,90,0.0,0.0,56,0.00,,,0.00,WUHU216HW,2013-06-16 01:39:00,
2013-06-15 21:45:00,68.9,53.6,30.00,East,90,0.0,0.0,58,0.00,,,0.00,WUHU216HW,2013-06-16 01:45:00,
2013-06-15 21:50:00,68.9,54.0,30.00,East,90,0.0,0.0,59,0.00,,,0.00,WUHU216HW,2013-06-16 01:50:00,
2013-06-15 21:56:00,68.8,53.9,30.00,East,90,0.0,0.0,59,0.00,,,0.00,WUHU216HW,2013-06-16 01:56:00,
2013-06-15 22:01:00,68.6,54.2,30.00,East,90,0.0,0.0,60,0.00,,,0.00,WUHU216HW,2013-06-16 02:01:00,
2013-06-15 22:06:00,67.9,53.9,30.00,East,90,0.0,0.0,61,0.00,,,0.00,WUHU216HW,2013-06-16 02:06:00,
2013-06-15 22:11:00,67.1,53.6,30.01,East,90,0.0,0.0,62,0.00,,,0.00,WUHU216HW,2013-06-16 02:11:00,
2013-06-15 22:17:00,67.0,53.9,30.01,SSW,203,0.7,1.8,63,0.00,,,0.00,WUHU216HW,2013-06-16 02:17:00,
2013-06-15 22:22:00,66.8,53.7,30.00,SSW,203,0.0,1.8,63,0.00,,,0.00,WUHU216HW,2013-06-16 02:22:00,
2013-06-15 22:27:00,66.6,53.7,30.00,SSW,203,0.0,0.0,63,0.00,,,0.00,WUHU216HW,2013-06-16 02:27:00,
2013-06-15 22:32:00,66.2,53.3,30.01,SSW,203,0.0,0.0,63,0.00,,,0.00,WUHU216HW,2013-06-16 02:32:00,
2013-06-15 22:37:00,66.1,53.5,30.01,SSW,203,0.0,0.0,64,0.00,,,0.00,WUHU216HW,2013-06-16 02:37:00,
2013-06-15 22:42:00,65.9,53.7,30.00,SSW,203,0.0,0.0,65,0.00,,,0.00,WUHU216HW,2013-06-16 02:42:00,
2013-06-15 22:47:00,65.5,53.8,30.01,SSW,203,0.0,0.0,66,0.00,,,0.00,WUHU216HW,2013-06-16 02:47:00,
2013-06-15 22:52:00,65.2,53.1,30.01,SSW,203,0.0,0.0,65,0.00,,,0.00,WUHU216HW,2013-06-16 02:52:00,
2013-06-15 22:57:00,65.0,53.3,30.01,SSW,203,0.0,0.0,66,0.00,,,0.00,WUHU216HW,2013-06-16 02:57:00,
2013-06-15 23:02:00,64.8,53.2,30.01,SSW,203,0.0,0.0,66,0.00,,,0.00,WUHU216HW,2013-06-16 03:02:00,
2013-06-15 23:07:00,64.6,53.8,30.01,SSW,203,0.0,0.0,68,0.00,,,0.00,WUHU216HW,2013-06-16 03:07:00,
2013-06-15 23:12:00,64.4,54.1,30.01,SSW,203,0.0,0.0,69,0.00,,,0.00,WUHU216HW,2013-06-16 03:12:00,
2013-06-15 23:17:00,64.1,53.3,30.01,SSW,203,0.0,0.0,68,0.00,,,0.00,WUHU216HW,2013-06-16 03:17:00,
2013-06-15 23:22:00,63.9,53.2,30.01,SSW,203,0.0,0.0,68,0.00,,,0.00,WUHU216HW,2013-06-16 03:22:00,
2013-06-15 23:27:00,63.9,53.6,30.01,SSW,203,0.0,0.0,69,0.00,,,0.00,WUHU216HW,2013-06-16 03:27:00,
2013-06-15 23:32:00,63.9,54.0,30.01,SSW,203,0.0,0.0,70,0.00,,,0.00,WUHU216HW,2013-06-16 03:32:00,
2013-06-15 23:37:00,63.7,53.4,30.01,SSW,203,0.0,0.0,69,0.00,,,0.00,WUHU216HW,2013-06-16 03:37:00,
2013-06-15 23:42:00,63.7,53.4,30.01,SSW,203,0.0,0.0,69,0.00,,,0.00,WUHU216HW,2013-06-16 03:42:00,
2013-06-15 23:47:00,63.9,54.0,30.01,SSW,203,0.4,0.4,70,0.00,,,0.00,WUHU216HW,2013-06-16 03:47:00,
2013-06-15 23:52:00,63.7,53.8,30.01,SSW,203,0.0,0.4,70,0.00,,,0.00,WUHU216HW,2013-06-16 03:52:00,
2013-06-15 23:57:00,63.7,53.4,30.01,SSW,203,0.0,0.0,69,0.00,,,0.00,WUHU216HW,2013-06-16 03:57:00,